Date_and_time,latitude,longitude,wind_speed,RelWindDirFrom,WindDirFrom,air_pressure,air_temperature,relative_humidity,Temp,platform_speed_wrt_ground,air_pressure_at_mean_sea_level,platform_orientation
2018-06-22 23:50,50.911725,-96.9825216666667,13.1,17.1,173,979.67,22.0,68,22.65,0.0,1005.09,149.8
2018-06-23 00:00,50.9117283333333,-96.982525,13.9,18.1,167,979.52,22.2,66,22.63,0.0,1004.93,360.0
2018-06-23 00:10,50.9117433333333,-96.982495,14.1,18.6,170,979.51,21.7,72,22.62,0.0,1004.91,360.0
2018-06-23 00:20,50.9117366666667,-96.9825083333333,14.8,19.3,170,979.60,21.8,76,22.61,0.0,1005.08,360.0
2018-06-23 00:30,50.91173,-96.98254,17.3,20.9,169,979.63,22.0,72,22.60,0.0,1005.16,360.0
2018-06-23 00:40,50.911735,-96.98253,16.0,19.2,168,979.78,21.8,76,22.60,0.0,1005.31,360.0
2018-06-23 00:50,50.911735,-96.98252,15.0,18.5,169,979.76,21.5,78,22.59,0.0,1005.28,360.0
2018-06-23 01:00,50.9117333333333,-96.982525,15.4,20.0,171,979.62,21.6,77,22.57,0.0,1005.18,90.0
2018-06-23 01:10,50.9117316666667,-96.982525,19.0,23.0,173,979.54,21.6,78,22.56,0.0,1005.11,90.0
2018-06-23 01:20,50.91173,-96.9825266666667,18.6,23.2,172,979.57,21.5,77,22.52,0.0,1005.12,90.0
2018-06-23 01:30,50.91173,-96.982525,18.5,23.3,169,979.53,21.4,76,22.49,0.0,1005.07,90.0
2018-06-23 01:40,50.91173,-96.9825266666667,17.7,23.0,168,979.53,21.1,80,22.46,0.0,1005.11,90.0
2018-06-23 01:50,50.9116983333333,-96.9825316666667,18.4,21.6,169,979.51,20.9,82,22.42,0.0,1005.10,90.0
2018-06-23 02:00,50.9117416666667,-96.9825166666667,16.9,19.6,172,979.55,20.6,84,22.38,0.0,1005.17,348.3
2018-06-23 02:10,50.9117383333333,-96.9825216666667,14.5,17.9,176,979.50,20.6,85,22.33,0.0,1005.12,348.3
2018-06-23 02:20,50.911725,-96.9825283333333,12.3,15.3,179,979.45,20.5,86,22.30,0.0,1005.06,348.3
2018-06-23 02:30,50.9117316666667,-96.9825416666667,15.0,18.2,177,979.44,20.7,82,22.28,0.0,1005.06,348.3
2018-06-23 02:40,50.9117266666667,-96.9825333333333,13.9,16.9,176,979.51,20.7,82,22.25,0.0,1005.14,348.3
2018-06-23 02:50,50.911725,-96.9825333333333,12.9,15.7,177,979.56,20.6,82,22.22,0.0,1005.19,348.3
2018-06-23 03:00,50.9117266666667,-96.9825333333333,9.3,13.3,180,979.67,20.5,83,22.20,0.0,1005.30,270.0
2018-06-23 03:10,50.9117266666667,-96.9825333333333,7.0,9.2,183,979.72,20.5,82,22.20,0.0,1005.35,270.0
2018-06-23 03:20,50.9117416666667,-96.982535,7.4,9.5,173,979.64,20.4,82,22.20,0.0,1005.29,270.0
2018-06-23 03:30,50.9117333333333,-96.9825183333333,6.9,8.9,177,979.61,20.2,82,22.19,0.0,1005.28,270.0
2018-06-23 03:40,50.9117433333333,-96.9825366666667,5.9,7.7,170,979.66,20.1,83,22.18,0.0,1005.35,270.0
2018-06-23 03:50,50.9117183333333,-96.98255,7.3,15.8,89,980.11,20.3,87,22.17,0.0,1005.81,270.0
2018-06-23 04:00,50.9117366666667,-96.9825333333333,13.5,28.0,103,980.20,20.6,86,22.16,0.0,1005.89,350.2
2018-06-23 04:10,50.9117366666667,-96.982525,10.8,12.8,105,980.24,20.9,89,22.15,0.0,1005.92,350.2
2018-06-23 04:20,50.9117366666667,-96.982525,10.0,12.3,104,980.29,20.8,88,22.15,0.0,1005.97,350.2
2018-06-23 04:30,50.91175,-96.982515,7.8,9.5,120,980.21,20.3,89,22.14,0.0,1005.90,350.2
2018-06-23 04:40,50.9117083333333,-96.9825033333333,8.0,10.3,113,980.18,20.4,89,22.12,0.0,1005.87,350.2
2018-06-23 04:50,50.9117366666667,-96.9825316666667,5.5,7.3,103,980.11,20.3,90,22.11,0.0,1005.81,350.2
2018-06-23 05:00,50.911735,-96.9825216666667,7.7,10.3,108,979.91,20.4,89,22.10,0.0,1005.60,227.9
2018-06-23 05:10,50.9117333333333,-96.9825216666667,9.5,11.1,104,979.86,20.4,90,22.08,0.0,1005.56,227.9
2018-06-23 05:20,50.9117316666667,-96.9825216666667,9.9,11.7,98,979.86,20.2,92,22.07,0.0,1005.57,227.9
2018-06-23 05:30,50.91173,-96.982525,9.7,11.6,104,979.83,20.2,93,22.05,0.0,1005.55,227.9
2018-06-23 05:40,50.91173,-96.9825283333333,9.4,11.7,107,979.91,20.2,92,22.03,0.0,1005.62,227.9
2018-06-23 05:50,50.91173,-96.98253,7.1,9.1,115,980.01,19.9,92,22.02,0.0,1005.72,227.9
2018-06-23 06:00,50.9117483333333,-96.9825233333333,6.0,7.8,121,980.06,19.7,92,22.00,0.0,1005.77,31.8
2018-06-23 06:10,50.9117316666667,-96.9825216666667,5.0,6.2,140,980.23,19.4,92,21.99,0.0,1005.95,31.8
2018-06-23 06:20,50.91172,-96.9825266666667,5.5,6.4,152,980.20,19.4,92,21.98,0.0,1005.95,31.8
2018-06-23 06:30,50.9117283333333,-96.9825316666667,4.4,6.1,148,980.09,19.3,94,21.96,0.0,1005.84,31.8
2018-06-23 06:40,50.9117133333333,-96.9825516666667,2.5,3.8,163,980.06,19.3,94,21.95,0.0,1005.82,31.8
2018-06-23 06:50,50.91172,-96.982535,3.5,5.3,164,979.98,19.3,92,21.92,0.0,1005.73,31.8
2018-06-23 07:00,50.91172,-96.982535,3.9,5.5,172,980.03,19.4,92,21.90,0.0,1005.78,360.0
2018-06-23 07:10,50.9117,-96.98253,5.6,7.4,143,979.96,19.4,91,21.88,0.0,1005.71,360.0
2018-06-23 07:20,50.9117216666667,-96.9825216666667,6.1,7.2,148,979.95,19.2,93,21.86,0.0,1005.71,360.0
2018-06-23 07:30,50.911725,-96.9825283333333,7.4,10.9,144,979.83,19.1,94,21.84,0.0,1005.59,360.0
2018-06-23 07:40,50.9117233333333,-96.9825266666667,9.4,10.5,154,979.78,19.3,90,21.82,0.0,1005.55,360.0
2018-06-23 07:50,50.9117233333333,-96.98253,8.2,9.8,152,979.77,19.2,92,21.80,0.0,1005.55,360.0
2018-06-23 08:00,50.9117233333333,-96.9825316666667,7.8,9.9,147,979.75,19.2,92,21.78,0.0,1005.54,192.9
2018-06-23 08:10,50.911725,-96.9825316666667,8.5,10.2,148,979.72,19.1,93,21.76,0.0,1005.51,192.9
2018-06-23 08:20,50.9117266666667,-96.9825333333333,8.6,10.0,158,979.58,19.0,96,21.75,0.0,1005.38,192.9
2018-06-23 08:30,50.9117283333333,-96.9825333333333,8.4,10.1,153,979.50,18.9,96,21.72,0.0,1005.30,192.9
2018-06-23 08:40,50.9116916666667,-96.9825233333333,6.9,8.4,150,979.43,18.9,95,21.70,0.0,1005.22,192.9
2018-06-23 08:50,50.911715,-96.982535,7.0,8.2,144,979.40,18.9,95,21.69,0.0,1005.20,192.9
2018-06-23 09:00,50.911725,-96.9825316666667,6.8,8.5,143,979.35,19.1,93,21.67,0.0,1005.14,360.0
2018-06-23 09:10,50.9117233333333,-96.9825283333333,7.4,9.3,150,979.41,19.0,96,21.66,0.0,1005.21,360.0
2018-06-23 09:20,50.9117233333333,-96.982525,8.2,11.0,161,979.43,18.9,99,21.64,0.0,1005.24,360.0
2018-06-23 09:30,50.9117216666667,-96.9825266666667,9.0,11.9,165,979.28,19.1,96,21.62,0.0,1005.07,360.0
2018-06-23 09:40,50.9117216666667,-96.9825266666667,9.2,12.4,169,979.19,19.2,92,21.60,0.0,1004.98,360.0
2018-06-23 09:50,50.91172,-96.9825266666667,6.3,8.7,175,979.20,19.0,94,21.57,0.0,1004.99,360.0
2018-06-23 10:00,50.91172,-96.9825266666667,3.8,6.0,180,979.13,19.0,95,21.56,0.0,1004.92,90.0
2018-06-23 10:10,50.9116966666667,-96.9825133333333,5.0,6.3,177,979.24,19.0,93,21.54,0.0,1005.05,90.0
2018-06-23 10:20,50.9117416666667,-96.9825066666667,7.0,10.2,184,979.25,19.0,93,21.53,0.0,1005.06,90.0
2018-06-23 10:30,50.9117033333333,-96.982525,6.7,8.4,173,979.33,18.8,98,21.51,0.0,1005.15,90.0
2018-06-23 10:40,50.9117116666667,-96.98254,5.5,7.0,160,979.46,18.6,99,21.49,0.0,1005.29,90.0
2018-06-23 10:50,50.9117133333333,-96.982535,4.9,6.1,162,979.52,18.6,99,21.48,0.0,1005.34,90.0
2018-06-23 11:00,50.911725,-96.9825183333333,4.6,6.3,167,979.49,18.7,99,21.47,0.0,1005.31,90.0
2018-06-23 11:10,50.91172,-96.9825233333333,3.2,5.0,168,979.60,18.8,100,21.46,0.0,1005.43,90.0
2018-06-23 11:20,50.9117216666667,-96.9825266666667,0.4,2.4,178,979.62,18.8,100,21.45,0.0,1005.44,90.0
2018-06-23 11:30,50.9117233333333,-96.982525,0.5,2.1,28,979.76,19.1,100,21.44,0.0,1005.56,90.0
2018-06-23 11:40,50.9117233333333,-96.982525,1.8,2.9,42,979.87,19.3,100,21.43,0.0,1005.67,90.0
2018-06-23 11:50,50.9117233333333,-96.982525,1.0,2.8,313,979.90,19.0,100,21.42,0.0,1005.72,90.0
2018-06-23 12:00,50.9117233333333,-96.982525,0.8,2.8,330,980.06,19.0,100,21.41,0.0,1005.88,0.0
2018-06-23 12:10,50.9117233333333,-96.982525,1.5,2.7,54,980.03,19.5,99,21.39,0.0,1005.84,0.0
2018-06-23 12:20,50.9117283333333,-96.98253,2.3,5.1,75,979.97,19.9,98,21.38,0.0,1005.76,0.0
2018-06-23 12:30,50.911735,-96.982535,5.5,7.1,86,980.01,20.1,97,21.38,0.0,1005.80,0.0
2018-06-23 12:40,50.9117333333333,-96.98253,7.3,9.1,102,980.07,19.8,100,21.37,0.0,1005.88,0.0
2018-06-23 12:50,50.9117233333333,-96.9825233333333,7.2,8.5,127,980.03,19.1,97,21.37,0.0,1005.87,0.0
2018-06-23 13:00,50.9117233333333,-96.982525,5.7,7.4,124,980.01,19.4,95,21.36,0.0,1005.83,360.0
2018-06-23 13:10,50.9117633333333,-96.9825066666667,5.6,7.8,130,979.92,19.5,96,21.36,0.0,1005.73,360.0
2018-06-23 13:20,50.911735,-96.982525,6.6,8.5,140,979.86,19.5,97,21.36,0.0,1005.65,360.0
2018-06-23 13:30,50.91174,-96.982535,5.8,7.3,141,979.89,19.5,96,21.36,0.0,1005.68,360.0
2018-06-23 13:40,50.9117266666667,-96.9825266666667,6.2,8.8,158,979.89,19.6,89,21.37,0.0,1005.68,360.0
2018-06-23 13:50,50.9117166666667,-96.9825266666667,5.9,7.5,169,979.85,20.1,82,21.37,0.0,1005.63,360.0
2018-06-23 14:00,50.91172,-96.9825266666667,4.7,6.8,133,979.83,20.4,81,21.37,0.0,1005.56,189.8
2018-06-23 14:10,50.9117183333333,-96.9825216666667,5.1,7.4,110,979.86,20.6,85,21.38,0.0,1005.57,189.8
2018-06-23 14:20,50.9117183333333,-96.9825233333333,8.3,10.8,131,979.86,19.9,83,21.39,0.0,1005.59,189.8
2018-06-23 14:30,50.9117183333333,-96.982525,8.7,11.4,142,979.86,20.0,80,21.38,0.0,1005.60,189.8
2018-06-23 14:40,50.9117183333333,-96.9825233333333,6.2,8.8,138,979.92,19.7,87,21.38,0.0,1005.71,189.8
2018-06-23 14:50,50.91172,-96.9825233333333,4.0,5.6,149,979.97,19.6,90,21.38,0.0,1005.75,189.8
2018-06-23 15:00,50.9117216666667,-96.982525,2.8,3.9,144,980.00,19.7,88,21.38,0.0,1005.76,360.0
2018-06-23 15:10,50.9117216666667,-96.982525,3.4,5.1,97,980.05,20.8,83,21.38,0.0,1005.77,360.0
2018-06-23 15:20,50.9117233333333,-96.982525,4.9,6.1,85,980.07,21.7,78,21.40,0.0,1005.75,360.0
2018-06-23 15:30,50.9117383333333,-96.9825166666667,5.9,8.8,85,980.11,21.9,76,21.41,0.0,1005.78,360.0
2018-06-23 15:40,50.91174,-96.9825183333333,6.8,8.8,78,980.18,21.8,79,21.43,0.0,1005.84,360.0
2018-06-23 15:50,50.9117366666667,-96.9825166666667,8.1,10.1,82,980.32,22.1,76,21.44,0.0,1005.96,360.0
2018-06-23 16:00,50.911735,-96.9825183333333,5.3,8.0,79,980.43,22.5,73,21.46,0.0,1006.04,12.9
2018-06-23 16:10,50.9117333333333,-96.98252,2.8,3.5,84,980.53,23.2,70,21.48,0.0,1006.14,12.9
2018-06-23 16:20,50.911715,-96.9825016666667,3.3,3.8,84,980.55,23.1,69,21.51,0.0,1006.17,12.9
2018-06-23 16:30,50.9117216666667,-96.9825116666667,3.4,4.8,75,980.60,23.3,68,21.54,0.0,1006.22,12.9
2018-06-23 16:40,50.911735,-96.9825316666667,2.6,4.5,69,980.59,23.5,71,21.56,0.0,1006.20,12.9
2018-06-23 16:50,50.9117316666667,-96.9825266666667,3.1,5.4,67,980.63,23.6,73,21.58,0.0,1006.23,12.9
2018-06-23 17:00,50.9117333333333,-96.9825166666667,3.8,5.6,69,980.64,23.3,75,21.60,0.0,1006.21,36.0
2018-06-23 17:10,50.9117533333333,-96.9825366666667,3.4,5.1,70,980.75,23.5,74,21.61,0.0,1006.27,36.0
2018-06-23 17:20,50.9117333333333,-96.982525,3.7,5.3,75,980.79,23.4,72,21.63,0.0,1006.31,36.0
2018-06-23 17:30,50.9117316666667,-96.982525,4.3,5.3,85,980.88,23.2,74,21.64,0.0,1006.42,36.0
2018-06-23 17:40,50.9117333333333,-96.9825316666667,4.3,5.0,78,980.91,23.3,72,21.65,0.0,1006.43,36.0
2018-06-23 17:50,50.91173,-96.98253,3.6,4.6,84,980.97,23.6,70,21.66,0.0,1006.46,36.0
2018-06-23 18:00,50.91173,-96.9825283333333,2.8,4.3,92,980.96,23.8,66,21.67,0.0,1006.41,360.0
2018-06-23 18:10,50.91173,-96.9825266666667,3.4,5.0,159,980.98,22.7,68,21.69,0.0,1006.49,360.0
2018-06-23 18:20,50.91173,-96.982525,3.1,4.6,170,981.00,22.7,69,21.71,0.0,1006.50,360.0
2018-06-23 18:30,50.91173,-96.9825266666667,3.6,4.8,149,980.99,22.7,70,21.76,0.0,1006.48,360.0
2018-06-23 18:40,50.91173,-96.9825266666667,3.0,4.1,129,980.94,22.6,71,21.81,0.0,1006.43,360.0
2018-06-23 18:50,50.91173,-96.982525,3.0,3.7,119,980.90,23.0,66,21.86,0.0,1006.38,360.0
2018-06-23 19:00,50.9117233333333,-96.9825266666667,2.7,3.7,98,980.86,24.2,63,21.89,0.0,1006.28,192.9
2018-06-23 19:10,50.911725,-96.9825233333333,3.2,4.7,76,980.88,25.4,58,21.92,0.0,1006.25,192.9
2018-06-23 19:20,50.911725,-96.9825316666667,3.3,4.9,69,980.84,25.4,59,21.94,0.0,1006.22,192.9
2018-06-23 19:30,50.911725,-96.9825283333333,3.4,4.7,65,980.78,25.7,56,21.96,0.0,1006.14,192.9
2018-06-23 19:40,50.911725,-96.98253,4.1,5.2,75,980.69,25.8,57,21.98,0.0,1006.03,192.9
2018-06-23 19:50,50.911725,-96.98253,4.0,5.0,79,980.58,25.9,57,22.02,0.0,1005.91,192.9
2018-06-23 20:00,50.9117266666667,-96.9825316666667,3.3,5.1,74,980.56,26.2,55,22.05,0.0,1005.92,270.0
2018-06-23 20:10,50.9117266666667,-96.98253,3.1,4.3,70,980.58,26.7,53,22.09,0.0,1005.92,270.0
2018-06-23 20:20,50.9117233333333,-96.98253,3.5,5.2,65,980.59,26.8,52,22.13,0.0,1005.93,270.0
2018-06-23 20:30,50.9117233333333,-96.9825283333333,4.6,5.8,79,980.52,26.5,53,22.16,0.0,1005.87,270.0
2018-06-23 20:40,50.91172,-96.9825233333333,3.7,5.1,70,980.40,26.7,52,22.19,0.0,1005.72,270.0
2018-06-23 20:50,50.9117233333333,-96.982525,4.1,5.2,75,980.35,26.8,52,22.22,0.0,1005.61,270.0
2018-06-23 21:00,50.9117216666667,-96.9825233333333,3.8,5.3,73,980.38,27.0,53,22.26,0.0,1005.59,167.1
2018-06-23 21:10,50.9117216666667,-96.9825233333333,4.1,6.0,72,980.52,27.0,53,22.30,0.0,1005.73,167.1
2018-06-23 21:20,50.9117366666667,-96.9825433333333,4.7,7.4,67,980.77,26.7,54,22.34,0.0,1005.99,167.1
2018-06-23 21:30,50.9117233333333,-96.982525,6.0,8.5,70,981.01,26.1,56,22.36,0.0,1006.25,167.1
2018-06-23 21:40,50.9117216666667,-96.9825216666667,8.9,12.3,72,981.21,25.9,57,22.37,0.0,1006.46,167.1
2018-06-23 21:50,50.91172,-96.982525,14.9,23.0,81,981.19,24.9,64,22.39,0.0,1006.47,167.1
2018-06-23 22:00,50.91172,-96.9825266666667,19.1,23.5,81,981.16,23.8,74,22.40,0.0,1006.46,360.0
2018-06-23 22:10,50.91172,-96.9825266666667,17.5,21.2,81,981.19,23.1,79,22.42,0.0,1006.53,360.0
2018-06-23 22:20,50.9117183333333,-96.9825283333333,17.9,21.4,81,981.35,22.3,85,22.41,0.0,1006.74,360.0
2018-06-23 22:30,50.91172,-96.9825266666667,15.0,19.6,74,981.35,21.8,86,22.38,0.0,1006.75,360.0
2018-06-23 22:40,50.9117216666667,-96.98253,14.6,18.7,71,981.40,21.6,86,22.34,0.0,1006.80,360.0
2018-06-23 22:50,50.9117316666667,-96.9825516666667,14.0,17.4,77,981.65,21.3,86,22.30,0.0,1007.06,360.0
2018-06-23 23:00,50.9117066666667,-96.98251,11.9,15.2,76,981.79,21.2,84,22.25,0.0,1007.21,360.0
2018-06-23 23:10,50.91171,-96.9825216666667,8.1,12.1,68,981.89,21.2,82,22.21,0.0,1007.32,360.0
2018-06-23 23:20,50.9117166666667,-96.98251,11.4,17.0,54,981.82,21.1,87,22.17,0.0,1007.29,360.0
2018-06-23 23:30,50.9117166666667,-96.9825266666667,13.9,17.1,52,981.84,20.8,92,22.13,0.0,1007.33,360.0
2018-06-23 23:40,50.9117183333333,-96.9825216666667,12.4,17.3,58,981.92,20.8,91,22.10,0.0,1007.45,360.0
2018-06-23 23:50,50.9117216666667,-96.9825216666667,11.5,15.3,54,982.03,20.6,96,22.07,0.0,1007.62,360.0
